SCP
-0 -0 -0 -0 -0 -0 -0 -0 -0 -0 -0 -0 -0 -0 -0 -0 -0 0 0 0 0 0 0 0 0 0 0 0 0 0 0 0 -0 -0 0 0 0 0 0 0 0 0 0 0 0 0 0
-0 -0 -0 -0 -0 -0 -0 -0 -0 -0 -0 -0 -0 -0 -0 -0 -0 -0 0 0 0 0 0 0 0 0 0 0 0 0 0 -0 -0 -0 0 0 0 0 0 0 0 0 0 0 0 0 0
-0 -0 -0 -0 -0 -0 -0 -0 -0 -0 -0 -0 -0 -0 -0 -0 -0 -0 -0 0 0 0 0 0 0 0 0 0 0 0 -0 -0 -0 0 0 0 0 0 0 0 0 0 0 0 0 0 0
-0 -0 -0 -0 -0 -0 -0 -0 -0 -0 -0 -0 -0 -0 -0 -0 -0 -0 -0 -0 -0 -0 -0 0 0 0 0 0 0 -0 -0 -0 -0 -0 0 0 -0 0 0 0 0 0 0 0 0 0 0
-0 -0 -0 -0 -0 -0 -0 -0 -0 -0 -0 -0 -0 -0 -0 -0 -0 -0 -0 -0 0 0 0 -0 -0 -0 0 0 0 0 -0 0 0 0 0 0 -0 0 0 -0 -0 -0 -0 -0 0 0 0
-0 0 0 0 -0 -0 -0 -0 -0 -0 -0 -0 -0 -0 -0 -0 -0 -0 -0 -0 0 0 -0 -0 0 -0 0 0 0 0 0 -0 0 0 0 -0 0 -0 -0 -0 0 0 0 0 0 0 0
0 0 0 0 -0 -0 -0 -0 -0 -0 -0 -0 -0 -0 -0 -0 -0 -0 -0 0 -0 0 -0 0 0 0 0 -0 -0 -0 -0 -0 0 0 0 0 -0 0 0 0 -0 -0 -0 0 0 0 0
0 0 0 -0 -0 -0 -0 -0 -0 -0 -0 -0 -0 -0 -0 -0 -0 0 -0 -0 0 0 0 0 0 0 0 -0 -0 -0 -0 -0 -0 0 0 0 0 0 0 0 -0 0 -0 0 0 0 0
0 0 0 -0 -0 -0 -0 -0 -0 -0 -0 -0 -0 -0 -0 -0 -0 0 0 0 -0 -0 -0 0 -0 -0 0 -0 0 0 -0 -0 -0 0 0 0 0 0 0 0 0 0 -0 0 -0 0 0
0 0 0 0 0 0 0 0 -0 -0 -0 -0 -0 -0 -0 -0 -0 0 0 0 -0 -0 0 0 -0 -0 -0 -0 0 0 -0 -0 -0 0 0 0 0 0 0 0 -0 0 0 0 0 0 0
0 0 0 0 0 0 0 0 -0 -0 -0 -0 -0 -0 -0 0 0 0 0 0 -0 -0 0 0 0 0 -0 -0 0 0 -0 0 0 0 -0 0 0 0 0 0 0 0 0 0 0 -0 0
0 0 0 0 0 0 -0 -0 -0 -0 -0 -0 -0 -0 -0 0 0 0 0 0 0 0 0 0 0 0 -0 -0 0 -0 -0 -0 0 0 0 0 0 0 0 0 0 0 0 0 0 0 0
0 0 0 0 0 -0 -0 -0 -0 -0 -0 -0 -0 -0 0 0 0 0 0 0 0 0 0 0 0 0 0 0 0 0 0 0 0 0 0 0 0 0 0 0 0 0 0 0 0 0 0
0 0 0 0 0 0 -0 -0 -0 -0 -0 -0 -0 -0 0 0 0 0 0 0 0 0 0 0 0 0 0 0 0 0 0 0 0 -0 0 0 0 0 0 0 0 0 0 0 0 0 0
0 0 0 0 0 0 -0 -0 -0 -0 -0 -0 -0 0 0 0 0 0 0 0 0 0 0 0 0 0 0 0 0 0 0 0 0 0 0 0 0 0 0 0 0 0 0 0 0 0 0
0 0 0 0 0 0 -0 -0 -0 -0 -0 -0 0 0 0 0 0 0 0 0 0 0 0 0 0 0 0 0 0 0 0 0 0 0 0 0 0 0 0 0 0 0 0 0 0 0 0
0 0 0 0 0 0 -0 -0 -0 -0 -0 -0 0 0 0 0 0 0 0 0 0 0 0 0 0 0 0 0 0 0 0 0 0 0 0 0 0 0 0 0 0 0 0 0 0 0 0
0 0 0 0 0 0 -0 -0 -0 -0 -0 0 0 0 0 0 0 0 0 0 0 0 0 0 0 0 0 0 0 0 0 0 0 0 0 0 0 0 0 0 0 0 0 0 0 0 0
0 0 0 0 0 0 0 -0 -0 -0 -0 0 0 0 0 0 0 0 0 0 0 0 0 0 0 0 0 0 0 0 0 0 0 0 0 0 0 0 0 0 0 0 0 0 0 0 0
0 0 0 0 0 0 0 0 0 -0 -0 0 0 0 0 0 0 0 0 0 0 0 0 0 0 0 0 0 0 0 0 0 0 0 0 0 0 0 0 0 0 0 0 0 0 0 0
0 0 0 0 0 0 0 0 0 0 0 0 0 0 0 0 0 0 0 0 0 0 0 0 0 0 0 0 0 0 0 0 0 0 0 0 0 0 0 0 0 0 0 0 0 0 0
0 0 0 0 0 0 0 0 0 0 0 0 0 0 0 0 0 0 0 0 0 0 0 0 0 0 0 0 0 0 0 0 0 0 0 0 0 0 0 0 0 0 0 0 0 0 0
0 0 0 0 0 0 0 0 0 0 0 0 0 0 0 0 0 0 0 0 0 0 0 0 0 0 0 0 0 0 0 0 0 0 0 0 0 0 0 0 0 0 0 0 0 0 0
0 0 0 0 0 0 0 0 0 0 0 0 0 0 0 0 0 0 0 0 0 0 0 0 0 0 0 0 0 0 0 0 0 0 0 0 0 0 0 0 0 0 0 0 0 0 0
0 0 0 0 0 0 0 0 0 0 0 0 0 0 0 0 0 0 0 0 0 0 0 0 0 0 0 0 0 0 0 0 0 0 0 0 0 0 0 0 0 0 0 0 0 0 0
0 0 0 0 0 0 0 0 0 0 0 0 0 0 0 0 0 0 0 0 0 0 0 0 0 0 0 0 0 0 0 0 0 0 0 0 0 0 0 0 0 0 0 0 0 0 0
0 0 0 0 0 0 0 0 0 0 0 0 0 0 0 0 0 0 0 0 0 0 0 0 0 0 0 0 0 0 0 0 0 0 0 0 0 0 0 0 0 0 0 0 0 0 0
0 0 0 0 0 0 0 0 0 0 0 0 0 0 0 0 0 0 0 0 0 0 0 0 0 0 0 0 0 0 0 0 0 0 0 0 0 0 0 0 0 0 0 0 0 0 0
0 0 0 0 0 0 0 0 0 0 0 0 0 0 0 0 0 0 0 0 0 0 0 0 0 0 0 0 0 0 0 0 0 0 0 0 0 0 0 0 0 0 0 0 0 0 0
Wind_Speed_500mb
52 52 54 54 55 56 56 54 49 42 32 24 21 20 21 22 23 23 22 20 15 9 10 11 14 16 9 7 14 11 19 18 9 8 7 8 13 12 16 17 19 26 14 24 23 17 19
50 51 51 51 52 52 52 52 52 48 42 31 21 17 16 18 20 20 21 20 14 7 8 11 15 14 7 10 8 9 12 13 5 5 9 10 6 4 7 10 23 11 21 23 21 23 12
49 50 50 50 50 50 49 50 50 50 47 42 31 21 16 15 16 19 22 24 9 3 6 11 18 11 2 10 6 4 8 1 4 7 12 8 6 7 7 14 5 9 21 23 26 23 9
48 49 50 50 50 49 49 48 47 48 47 45 40 30 21 16 14 16 22 22 3 3 7 13 14 10 8 7 8 5 5 3 11 14 10 3 4 1 6 4 13 19 15 23 22 18 13
46 47 49 50 50 49 48 48 47 46 46 45 43 35 28 18 15 13 16 12 7 5 9 14 7 3 13 9 8 4 7 5 11 15 10 5 1 2 11 20 17 14 12 16 19 15 2
46 48 49 49 50 51 50 48 47 47 45 44 43 38 32 21 14 12 12 13 11 5 6 9 2 7 8 7 4 5 9 8 6 15 10 7 9 14 12 16 11 12 12 10 9 17 3
45 48 49 50 51 52 52 51 49 47 46 45 43 40 35 24 14 10 5 9 5 3 12 12 6 9 4 1 2 8 10 11 11 13 16 10 16 15 5 1 14 12 12 11 7 11 16
44 46 48 49 51 52 53 52 52 50 47 46 44 39 36 26 11 8 4 4 4 6 9 11 14 14 12 5 9 12 12 12 13 9 8 15 18 6 8 11 15 21 21 21 13 8 19
45 46 48 49 50 52 54 55 54 54 51 47 44 40 35 26 8 8 10 4 6 11 10 6 8 8 6 12 5 12 13 5 6 7 7 12 15 5 12 15 17 19 22 12 15 18 22
45 47 49 50 51 53 55 57 57 56 55 51 46 39 33 21 1 10 9 3 6 10 9 15 16 12 12 9 8 5 8 6 9 6 5 6 7 8 13 8 14 10 2 7 12 24 21
46 48 50 51 52 52 55 58 58 57 57 54 51 40 28 15 8 9 12 2 5 6 9 17 17 10 10 11 19 8 5 8 4 6 12 13 3 4 5 9 7 13 3 6 8 19 14
46 48 48 50 51 53 55 59 60 60 58 56 54 43 23 12 14 18 13 1 6 12 6 17 17 20 22 16 8 14 9 3 1 6 4 9 5 6 8 2 4 8 11 13 15 21 22
45 48 49 50 50 53 54 58 61 61 61 56 57 40 15 9 11 25 15 6 10 11 9 17 19 18 25 15 13 11 9 6 5 8 8 10 7 7 9 14 11 14 14 18 16 17 14
49 47 48 48 49 50 53 58 61 62 61 55 57 29 6 16 22 25 20 11 13 1 11 7 6 15 20 20 9 12 14 12 5 7 4 6 16 1 10 9 15 9 13 16 20 20 11
48 46 46 47 48 48 51 54 60 62 61 55 49 6 8 14 33 24 22 14 5 4 4 4 12 19 18 15 9 15 11 3 4 2 8 6 4 8 8 6 9 4 14 15 18 15 19
46 46 44 45 47 47 49 52 57 59 61 56 38 7 10 18 27 16 13 8 8 4 7 7 14 9 21 21 19 15 19 5 7 2 4 5 11 3 3 8 4 12 6 10 15 13 20
43 44 43 43 44 45 46 49 54 56 58 53 19 3 4 21 18 16 13 6 7 5 8 7 7 8 4 10 14 13 9 10 3 6 3 2 7 11 12 1 14 8 17 8 11 11 17
42 42 42 42 41 42 43 44 48 53 55 52 17 5 9 17 15 5 7 2 4 9 7 9 4 4 6 6 10 10 13 5 2 4 5 4 7 13 10 6 4 5 9 11 12 17 8
40 40 39 40 40 39 39 39 39 44 50 53 23 9 10 16 9 11 4 7 7 7 3 8 8 2 5 9 6 7 8 6 5 3 6 7 4 10 9 13 12 8 2 2 2 6 21
37 36 37 37 38 37 35 34 34 34 37 36 12 5 3 3 4 9 5 7 8 3 6 3 4 6 11 9 3 9 12 6 6 7 7 2 5 12 14 11 8 8 8 4 9 6 20
34 35 35 35 34 35 34 32 29 29 28 21 9 6 4 3 7 11 5 5 9 10 6 9 8 14 10 7 10 9 10 15 12 11 5 4 12 9 5 5 8 11 12 12 17 12 12
34 32 33 33 32 33 31 29 28 24 20 9 10 8 8 15 13 13 6 11 12 7 5 15 12 12 10 8 8 8 11 12 12 14 8 4 6 10 14 8 11 16 11 8 6 5 2
32 32 32 33 30 29 30 28 26 20 15 6 8 7 5 5 7 10 5 6 6 6 4 3 7 12 12 11 12 13 9 7 3 9 12 9 4 4 9 2 11 16 15 13 3 5 5
31 30 30 30 30 27 28 25 22 18 11 5 7 5 8 9 8 7 10 11 13 11 6 8 8 9 11 21 19 15 12 9 9 8 3 10 10 2 9 7 13 9 4 2 5 3 7
33 31 29 28 28 26 25 24 20 17 12 6 6 3 6 11 10 19 12 12 9 8 6 10 7 11 25 13 8 7 9 8 10 2 8 7 8 5 5 11 7 14 11 9 8 4 9
37 34 27 24 23 24 24 23 20 16 15 9 9 8 5 13 3 5 12 8 11 12 12 10 13 15 10 9 7 11 11 5 9 10 6 8 10 9 7 6 6 13 15 10 5 11 19
38 38 28 22 20 16 25 22 20 16 15 12 9 11 6 13 13 7 8 7 5 9 6 19 16 11 10 10 10 10 12 3 9 10 11 14 13 17 12 10 8 13 23 15 10 7 15
38 36 31 22 21 21 17 23 20 16 15 11 13 15 12 15 24 17 10 10 8 9 10 13 12 10 11 11 8 7 8 9 8 1 9 17 11 11 16 13 12 26 21 8 12 16 15
38 33 28 25 22 20 14 17 24 18 13 11 7 15 18 19 16 16 19 25 20 10 7 11 4 6 7 6 5 3 8 7 9 6 9 9 7 4 10 3 8 39 4 12 13 16 15
Wind_Direction_500mb
38 37 37 37 37 36 34 33 32 31 23 18 21 25 25 27 29 33 33 27 22 40 86 67 40 28 120 159 99 80 73 87 122 157 181 186 195 201 208 207 205 230 197 231 240 230 242
36 34 34 33 32 31 31 30 28 26 25 17 2 359 3 8 13 17 19 18 16 47 59 43 20 17 138 151 125 80 67 64 124 129 182 162 158 209 167 200 223 203 243 234 238 240 235
33 32 31 30 29 27 26 25 25 23 20 18 9 349 336 341 352 357 1 359 358 63 34 12 6 48 129 94 137 63 54 126 120 131 142 157 134 249 168 168 180 190 224 218 226 235 244
28 28 27 27 26 24 21 20 20 19 18 15 11 1 339 318 325 341 355 4 48 8 351 358 11 97 73 132 151 114 76 70 96 135 122 150 226 261 246 124 195 215 236 213 166 208 205
20 19 19 20 21 20 18 16 15 14 12 12 9 3 352 326 303 319 353 8 359 294 319 344 28 70 105 97 123 144 145 136 108 141 141 89 132 288 190 213 195 205 211 224 142 208 268
12 10 10 12 14 14 13 12 10 8 7 5 6 1 353 337 295 295 344 350 335 282 290 325 317 201 157 96 131 161 172 154 138 139 157 208 230 240 210 225 236 167 197 193 177 148 237
6 6 5 5 7 8 7 7 6 5 3 360 358 359 350 342 306 270 328 343 307 199 305 270 321 311 124 323 202 174 177 178 179 219 239 203 263 226 270 302 319 289 273 258 209 91 92
1 2 2 1 1 2 3 2 2 1 359 356 352 353 352 342 308 243 174 292 18 335 286 255 252 261 257 243 189 182 179 209 206 224 195 215 231 26 223 210 258 240 236 234 230 173 133
357 356 356 356 356 357 357 356 357 358 356 354 349 345 349 343 304 209 179 216 303 335 262 159 196 209 183 180 138 133 188 198 237 198 197 294 57 173 218 221 232 226 252 259 274 167 143
352 352 351 350 351 352 350 350 352 353 352 350 348 337 341 348 38 167 179 286 321 317 248 140 187 170 177 190 145 167 201 273 194 26 199 48 71 158 189 178 246 195 137 235 184 203 215
345 346 346 345 346 347 345 345 346 348 347 345 344 333 328 328 207 192 197 287 343 298 202 146 151 159 184 227 134 143 188 223 356 71 256 92 106 207 222 30 296 56 232 270 244 248 279
340 341 343 343 343 341 343 342 343 344 344 341 340 329 314 310 209 201 188 192 319 231 176 158 165 187 181 182 141 142 181 148 357 277 290 99 108 360 28 26 337 138 221 220 241 259 246
335 337 338 340 340 339 342 343 344 346 343 339 339 327 292 230 184 191 186 196 223 254 137 166 183 189 197 171 165 206 183 163 305 246 174 173 141 111 358 247 186 231 246 266 245 226 250
327 331 332 335 336 338 342 343 346 348 345 340 343 333 281 190 172 167 167 213 233 51 194 97 201 187 202 176 178 173 192 173 127 258 241 281 174 12 1 341 325 315 319 284 286 290 322
321 325 327 330 332 336 338 341 342 346 349 343 349 28 41 185 162 165 204 216 236 218 52 217 174 201 184 189 227 196 225 202 96 269 288 241 166 131 64 14 296 139 255 14 289 240 266
318 320 322 324 326 332 338 340 339 345 349 348 352 62 8 157 167 167 225 260 247 235 319 226 233 249 208 189 203 216 187 130 134 353 313 85 280 160 89 254 171 283 25 250 216 276 274
316 318 321 322 324 328 334 340 340 345 350 354 10 246 0 146 153 202 229 223 245 269 283 259 210 179 220 184 233 207 178 124 186 114 179 266 271 134 225 293 328 235 233 233 300 303 294
313 314 318 321 325 328 329 336 342 347 351 2 5 220 344 180 212 232 216 177 332 264 246 230 256 125 180 167 185 200 193 19 105 202 223 78 299 291 348 127 336 348 313 277 271 264 243
312 313 315 319 323 326 327 331 342 349 356 357 340 309 342 191 241 202 156 247 253 262 221 216 182 249 178 150 162 169 151 85 135 193 184 161 187 278 184 185 199 259 61 73 308 281 269
315 316 317 319 321 323 326 329 340 348 354 356 342 296 95 152 40 318 303 235 222 215 229 258 146 167 162 165 189 170 155 110 116 110 95 279 222 270 277 5 338 233 232 258 277 262 280
315 317 318 318 319 321 325 330 336 347 353 3 354 52 353 330 124 323 267 302 256 204 214 205 187 233 190 185 191 192 153 147 144 148 132 272 268 268 281 273 264 286 271 274 263 292 273
316 315 315 316 319 321 324 326 331 343 354 22 341 343 320 284 293 277 181 217 263 172 255 191 243 173 183 207 213 210 194 199 194 178 181 159 262 272 259 228 262 263 250 255 259 234 192
314 314 314 316 317 318 320 326 329 339 4 20 352 332 305 270 236 252 229 285 280 219 129 273 194 172 142 82 82 69 67 80 133 213 185 201 199 245 272 280 273 255 239 218 190 218 301
313 311 310 311 314 315 318 321 326 330 349 14 324 328 277 269 249 269 306 296 270 250 266 137 153 173 127 123 106 102 101 111 142 109 216 192 200 199 278 236 258 87 120 198 244 200 187
319 310 309 306 312 315 313 316 319 317 312 303 297 334 284 274 294 263 260 280 251 197 185 145 76 110 145 150 194 190 184 209 190 176 164 247 190 219 248 240 269 175 190 185 191 237 192
322 318 310 301 304 323 314 310 309 309 295 282 278 241 267 294 172 314 285 275 251 194 166 132 107 136 163 222 199 236 235 232 178 165 174 163 236 180 202 236 281 88 138 155 172 259 147
316 321 313 297 287 303 316 308 304 301 289 281 255 232 237 264 266 277 264 307 270 252 223 155 155 171 200 209 225 238 234 275 217 213 177 181 194 208 206 233 251 127 148 154 240 78 143
303 312 314 306 279 279 304 318 306 298 283 279 258 242 216 257 268 267 264 271 257 231 238 131 173 195 200 223 235 195 251 192 235 194 186 195 195 202 222 237 240 152 156 224 96 126 140
297 302 304 307 287 264 284 302 314 297 279 281 258 261 238 241 262 268 255 249 250 253 287 199 12 174 178 216 231 203 210 183 240 227 186 223 222 197 198 236 124 169 116 134 144 145 142
Wind_Speed_850mb
52 52 54 54 55 56 56 54 49 42 32 24 21 20 21 22 23 23 22 20 15 9 10 11 14 16 9 7 14 11 19 18 9 8 7 8 13 12 16 17 19 26 14 24 23 17 19
50 51 51 51 52 52 52 52 52 48 42 31 21 17 16 18 20 20 21 20 14 7 8 11 15 14 7 10 8 9 12 13 5 5 9 10 6 4 7 10 23 11 21 23 21 23 12
49 50 50 50 50 50 49 50 50 50 47 42 31 21 16 15 16 19 22 24 9 3 6 11 18 11 2 10 6 4 8 1 4 7 12 8 6 7 7 14 5 9 21 23 26 23 9
48 49 50 50 50 49 49 48 47 48 47 45 40 30 21 16 14 16 22 22 3 3 7 13 14 10 8 7 8 5 5 3 11 14 10 3 4 1 6 4 13 19 15 23 22 18 13
46 47 49 50 50 49 48 48 47 46 46 45 43 35 28 18 15 13 16 12 7 5 9 14 7 3 13 9 8 4 7 5 11 15 10 5 1 2 11 20 17 14 12 16 19 15 2
46 48 49 49 50 51 50 48 47 47 45 44 43 38 32 21 14 12 12 13 11 5 6 9 2 7 8 7 4 5 9 8 6 15 10 7 9 14 12 16 11 12 12 10 9 17 3
45 48 49 50 51 52 52 51 49 47 46 45 43 40 35 24 14 10 5 9 5 3 12 12 6 9 4 1 2 8 10 11 11 13 16 10 16 15 5 1 14 12 12 11 7 11 16
44 46 48 49 51 52 53 52 52 50 47 46 44 39 36 26 11 8 4 4 4 6 9 11 14 14 12 5 9 12 12 12 13 9 8 15 18 6 8 11 15 21 21 21 13 8 19
45 46 48 49 50 52 54 55 54 54 51 47 44 40 35 26 8 8 10 4 6 11 10 6 8 8 6 12 5 12 13 5 6 7 7 12 15 5 12 15 17 19 22 12 15 18 22
45 47 49 50 51 53 55 57 57 56 55 51 46 39 33 21 1 10 9 3 6 10 9 15 16 12 12 9 8 5 8 6 9 6 5 6 7 8 13 8 14 10 2 7 12 24 21
46 48 50 51 52 52 55 58 58 57 57 54 51 40 28 15 8 9 12 2 5 6 9 17 17 10 10 11 19 8 5 8 4 6 12 13 3 4 5 9 7 13 3 6 8 19 14
46 48 48 50 51 53 55 59 60 60 58 56 54 43 23 12 14 18 13 1 6 12 6 17 17 20 22 16 8 14 9 3 1 6 4 9 5 6 8 2 4 8 11 13 15 21 22
45 48 49 50 50 53 54 58 61 61 61 56 57 40 15 9 11 25 15 6 10 11 9 17 19 18 25 15 13 11 9 6 5 8 8 10 7 7 9 14 11 14 14 18 16 17 14
49 47 48 48 49 50 53 58 61 62 61 55 57 29 6 16 22 25 20 11 13 1 11 7 6 15 20 20 9 12 14 12 5 7 4 6 16 1 10 9 15 9 13 16 20 20 11
48 46 46 47 48 48 51 54 60 62 61 55 49 6 8 14 33 24 22 14 5 4 4 4 12 19 18 15 9 15 11 3 4 2 8 6 4 8 8 6 9 4 14 15 18 15 19
46 46 44 45 47 47 49 52 57 59 61 56 38 7 10 18 27 16 13 8 8 4 7 7 14 9 21 21 19 15 19 5 7 2 4 5 11 3 3 8 4 12 6 10 15 13 20
43 44 43 43 44 45 46 49 54 56 58 53 19 3 4 21 18 16 13 6 7 5 8 7 7 8 4 10 14 13 9 10 3 6 3 2 7 11 12 1 14 8 17 8 11 11 17
42 42 42 42 41 42 43 44 48 53 55 52 17 5 9 17 15 5 7 2 4 9 7 9 4 4 6 6 10 10 13 5 2 4 5 4 7 13 10 6 4 5 9 11 12 17 8
40 40 39 40 40 39 39 39 39 44 50 53 23 9 10 16 9 11 4 7 7 7 3 8 8 2 5 9 6 7 8 6 5 3 6 7 4 10 9 13 12 8 2 2 2 6 21
37 36 37 37 38 37 35 34 34 34 37 36 12 5 3 3 4 9 5 7 8 3 6 3 4 6 11 9 3 9 12 6 6 7 7 2 5 12 14 11 8 8 8 4 9 6 20
34 35 35 35 34 35 34 32 29 29 28 21 9 6 4 3 7 11 5 5 9 10 6 9 8 14 10 7 10 9 10 15 12 11 5 4 12 9 5 5 8 11 12 12 17 12 12
34 32 33 33 32 33 31 29 28 24 20 9 10 8 8 15 13 13 6 11 12 7 5 15 12 12 10 8 8 8 11 12 12 14 8 4 6 10 14 8 11 16 11 8 6 5 2
32 32 32 33 30 29 30 28 26 20 15 6 8 7 5 5 7 10 5 6 6 6 4 3 7 12 12 11 12 13 9 7 3 9 12 9 4 4 9 2 11 16 15 13 3 5 5
31 30 30 30 30 27 28 25 22 18 11 5 7 5 8 9 8 7 10 11 13 11 6 8 8 9 11 21 19 15 12 9 9 8 3 10 10 2 9 7 13 9 4 2 5 3 7
33 31 29 28 28 26 25 24 20 17 12 6 6 3 6 11 10 19 12 12 9 8 6 10 7 11 25 13 8 7 9 8 10 2 8 7 8 5 5 11 7 14 11 9 8 4 9
37 34 27 24 23 24 24 23 20 16 15 9 9 8 5 13 3 5 12 8 11 12 12 10 13 15 10 9 7 11 11 5 9 10 6 8 10 9 7 6 6 13 15 10 5 11 19
38 38 28 22 20 16 25 22 20 16 15 12 9 11 6 13 13 7 8 7 5 9 6 19 16 11 10 10 10 10 12 3 9 10 11 14 13 17 12 10 8 13 23 15 10 7 15
38 36 31 22 21 21 17 23 20 16 15 11 13 15 12 15 24 17 10 10 8 9 10 13 12 10 11 11 8 7 8 9 8 1 9 17 11 11 16 13 12 26 21 8 12 16 15
38 33 28 25 22 20 14 17 24 18 13 11 7 15 18 19 16 16 19 25 20 10 7 11 4 6 7 6 5 3 8 7 9 6 9 9 7 4 10 3 8 39 4 12 13 16 15
Wind_Direction_850mb
38 37 37 37 37 36 34 33 32 31 23 18 21 25 25 27 29 33 33 27 22 40 86 67 40 28 120 159 99 80 73 87 122 157 181 186 195 201 208 207 205 230 197 231 240 230 242
36 34 34 33 32 31 31 30 28 26 25 17 2 359 3 8 13 17 19 18 16 47 59 43 20 17 138 151 125 80 67 64 124 129 182 162 158 209 167 200 223 203 243 234 238 240 235
33 32 31 30 29 27 26 25 25 23 20 18 9 349 336 341 352 357 1 359 358 63 34 12 6 48 129 94 137 63 54 126 120 131 142 157 134 249 168 168 180 190 224 218 226 235 244
28 28 27 27 26 24 21 20 20 19 18 15 11 1 339 318 325 341 355 4 48 8 351 358 11 97 73 132 151 114 76 70 96 135 122 150 226 261 246 124 195 215 236 213 166 208 205
20 19 19 20 21 20 18 16 15 14 12 12 9 3 352 326 303 319 353 8 359 294 319 344 28 70 105 97 123 144 145 136 108 141 141 89 132 288 190 213 195 205 211 224 142 208 268
12 10 10 12 14 14 13 12 10 8 7 5 6 1 353 337 295 295 344 350 335 282 290 325 317 201 157 96 131 161 172 154 138 139 157 208 230 240 210 225 236 167 197 193 177 148 237
6 6 5 5 7 8 7 7 6 5 3 360 358 359 350 342 306 270 328 343 307 199 305 270 321 311 124 323 202 174 177 178 179 219 239 203 263 226 270 302 319 289 273 258 209 91 92
1 2 2 1 1 2 3 2 2 1 359 356 352 353 352 342 308 243 174 292 18 335 286 255 252 261 257 243 189 182 179 209 206 224 195 215 231 26 223 210 258 240 236 234 230 173 133
357 356 356 356 356 357 357 356 357 358 356 354 349 345 349 343 304 209 179 216 303 335 262 159 196 209 183 180 138 133 188 198 237 198 197 294 57 173 218 221 232 226 252 259 274 167 143
352 352 351 350 351 352 350 350 352 353 352 350 348 337 341 348 38 167 179 286 321 317 248 140 187 170 177 190 145 167 201 273 194 26 199 48 71 158 189 178 246 195 137 235 184 203 215
345 346 346 345 346 347 345 345 346 348 347 345 344 333 328 328 207 192 197 287 343 298 202 146 151 159 184 227 134 143 188 223 356 71 256 92 106 207 222 30 296 56 232 270 244 248 279
340 341 343 343 343 341 343 342 343 344 344 341 340 329 314 310 209 201 188 192 319 231 176 158 165 187 181 182 141 142 181 148 357 277 290 99 108 360 28 26 337 138 221 220 241 259 246
335 337 338 340 340 339 342 343 344 346 343 339 339 327 292 230 184 191 186 196 223 254 137 166 183 189 197 171 165 206 183 163 305 246 174 173 141 111 358 247 186 231 246 266 245 226 250
327 331 332 335 336 338 342 343 346 348 345 340 343 333 281 190 172 167 167 213 233 51 194 97 201 187 202 176 178 173 192 173 127 258 241 281 174 12 1 341 325 315 319 284 286 290 322
321 325 327 330 332 336 338 341 342 346 349 343 349 28 41 185 162 165 204 216 236 218 52 217 174 201 184 189 227 196 225 202 96 269 288 241 166 131 64 14 296 139 255 14 289 240 266
318 320 322 324 326 332 338 340 339 345 349 348 352 62 8 157 167 167 225 260 247 235 319 226 233 249 208 189 203 216 187 130 134 353 313 85 280 160 89 254 171 283 25 250 216 276 274
316 318 321 322 324 328 334 340 340 345 350 354 10 246 0 146 153 202 229 223 245 269 283 259 210 179 220 184 233 207 178 124 186 114 179 266 271 134 225 293 328 235 233 233 300 303 294
313 314 318 321 325 328 329 336 342 347 351 2 5 220 344 180 212 232 216 177 332 264 246 230 256 125 180 167 185 200 193 19 105 202 223 78 299 291 348 127 336 348 313 277 271 264 243
312 313 315 319 323 326 327 331 342 349 356 357 340 309 342 191 241 202 156 247 253 262 221 216 182 249 178 150 162 169 151 85 135 193 184 161 187 278 184 185 199 259 61 73 308 281 269
315 316 317 319 321 323 326 329 340 348 354 356 342 296 95 152 40 318 303 235 222 215 229 258 146 167 162 165 189 170 155 110 116 110 95 279 222 270 277 5 338 233 232 258 277 262 280
315 317 318 318 319 321 325 330 336 347 353 3 354 52 353 330 124 323 267 302 256 204 214 205 187 233 190 185 191 192 153 147 144 148 132 272 268 268 281 273 264 286 271 274 263 292 273
316 315 315 316 319 321 324 326 331 343 354 22 341 343 320 284 293 277 181 217 263 172 255 191 243 173 183 207 213 210 194 199 194 178 181 159 262 272 259 228 262 263 250 255 259 234 192
314 314 314 316 317 318 320 326 329 339 4 20 352 332 305 270 236 252 229 285 280 219 129 273 194 172 142 82 82 69 67 80 133 213 185 201 199 245 272 280 273 255 239 218 190 218 301
313 311 310 311 314 315 318 321 326 330 349 14 324 328 277 269 249 269 306 296 270 250 266 137 153 173 127 123 106 102 101 111 142 109 216 192 200 199 278 236 258 87 120 198 244 200 187
319 310 309 306 312 315 313 316 319 317 312 303 297 334 284 274 294 263 260 280 251 197 185 145 76 110 145 150 194 190 184 209 190 176 164 247 190 219 248 240 269 175 190 185 191 237 192
322 318 310 301 304 323 314 310 309 309 295 282 278 241 267 294 172 314 285 275 251 194 166 132 107 136 163 222 199 236 235 232 178 165 174 163 236 180 202 236 281 88 138 155 172 259 147
316 321 313 297 287 303 316 308 304 301 289 281 255 232 237 264 266 277 264 307 270 252 223 155 155 171 200 209 225 238 234 275 217 213 177 181 194 208 206 233 251 127 148 154 240 78 143
303 312 314 306 279 279 304 318 306 298 283 279 258 242 216 257 268 267 264 271 257 231 238 131 173 195 200 223 235 195 251 192 235 194 186 195 195 202 222 237 240 152 156 224 96 126 140
297 302 304 307 287 264 284 302 314 297 279 281 258 261 238 241 262 268 255 249 250 253 287 199 12 174 178 216 231 203 210 183 240 227 186 223 222 197 198 236 124 169 116 134 144 145 142